Back to catalog

STARLINK-5091

AliveCommunicationsVLEO
NORAD 54873·PAYLOAD·🇺🇸 United States

Launched Dec 28, 2022 from Cape Canaveral Space Force Station

Loading…

Next Passes (next 24 hours)

TLE

FreshSource: CelesTrak SupGP

Epoch: Sep 14, 2026, 20:58 UTC

1 54873C 22177BF  26257.87409722 -.00018995  00000+0 -68807-3 0  2579
2 54873  42.9998 133.2755 0001196 237.7662  79.9968 15.27584813    19

Track STARLINK-5091 in real time with AllMySat

Download on the App Store